Regional Weather Roundup
Issued by NWS

Current Version | Previous Version | Graphics & Text | Print | Product List | Glossary On
Versions: 1 2 3 4 5 6 7 8 9 10 11 12 13 14 15 16 17 18 19 20 21 22 23 24 25 26 27 28 29 30 31 32 33 34 35 36 37 38 39 40 41 42 43 44 45 46 47 48 49 50
000
ASHW40 PHFO 270330
RWRHI

WEATHER ROUNDUP FOR HAWAII
NATIONAL WEATHER SERVICE HONOLULU HI
500 PM HST THU MAR 26 2015

THIS IS AN AUTOMATED REPORT THAT HAS NOT BEEN QUALITY CONTROLLED.

NOTE..."FAIR" INDICATES FEW OR NO CLOUDS BELOW 12,000 FEET WITH NO
SIGNIFICANT WEATHER AND/OR OBSTRUCTIONS TO VISIBILITY.

* - THESE SITES REPORT LIMITED FIELDS

HIZ001>004-270400-
KAUAI-NIIHAU-

CITY           SKY/WX    TMP DP  RH WIND       PRES   REMARKS
LIHUE APT      CLOUDY    74  61  63 NE15      30.16R
PORT ALLEN*      N/A     79 N/A N/A E20         N/A
POIPU*           N/A     77 N/A N/A NE10G21     N/A
PRINCEVILLE*     N/A     72 N/A N/A MISG        N/A
KOKOLE POINT*  NOT AVBL
MOLOAA DAIRY*  NOT AVBL
WAIMEA HTS*    NOT AVBL
PUU OPAE*      NOT AVBL
PUU LUA*       NOT AVBL
MAKAHA RIDGE*  NOT AVBL
$$

HIZ005>011-270400-
OAHU-

CITY           SKY/WX    TMP DP  RH WIND       PRES   REMARKS
HONOLULU       MOSUNNY   76  63  64 NE16G24   30.10R
KALAELOA       SUNNY     78  62  57 NE9G20    30.11R
KANEOHE MCB    CLOUDY    74  65  73 NE13G21   30.11R
WHEELER FIELD  PTSUNNY   72  63  73 E12       30.12R
BELLOWS*         N/A    N/A N/A N/A NE18        N/A
KAHUKU*          N/A    N/A N/A N/A NE13G23     N/A
WHEELER*       NOT AVBL
WAIANAE HARBOR NOT AVBL
DILLINGHAM*      N/A     75  63  64 MISG        N/A
KAHUKU TRN*      N/A     72  61  68 E12G26      N/A
KAWAILOA*        N/A     68  63  83 E15G29      N/A
KII*             N/A     73  64  73 NE18G29     N/A
MAKUA RANGE*     N/A     79  63  57 E12G24      N/A
OAHU FOREST NW NOT AVBL
SCHOFIELD BRK*   N/A     72  63  73 MISG        N/A
SCHOFIELD S*   NOT AVBL
WAIANAE VLY*   NOT AVBL
KUAOKALA*      NOT AVBL
HONOULIUULI*   NOT AVBL
MOKUOLOE IS*   NOT AVBL
PALEHUA*       NOT AVBL
WAIAWA PHB*    NOT AVBL
$$

HIZ012>013-270400-
MOLOKAI-

CITY           SKY/WX    TMP DP  RH WIND       PRES   REMARKS
MOLOKAI AIRPT  PTSUNNY   72  64  76 NE14G28   30.10R
KALAUPAPA      NOT AVBL
MAKAPULAPAI*   NOT AVBL
MOLOKAI 1*     NOT AVBL
PUU ALII*        N/A     57  57 100 CALM        N/A
$$

HIZ016-270400-
KAHOOLAWE-

CITY           SKY/WX    TMP DP  RH WIND       PRES   REMARKS
KAHOOLAWE*     NOT AVBL
HAKIOAWA*        N/A     72  68  88 MISG      30.51
HONOKANAIA*      N/A     77  65  65 NE15G28   30.09R
KANELOA*         N/A     75  68  78 MISG      29.29S
KEALIALALO*      N/A     72  66  83 E9G22     30.09S
LUA MAKIKA*    NOT AVBL
$$

HIZ014>015-270400-
LANAI-

CITY           SKY/WX    TMP DP  RH WIND       PRES   REMARKS
LANAI CITY     MOSUNNY   79  64  61 W23       30.12
LANAI 1*       NOT AVBL
$$

HIZ017>028-270400-
MAUI-

CITY           SKY/WX    TMP DP  RH WIND       PRES   REMARKS
KAHULUI        PTSUNNY   75  66  73 NE21G28   30.10R
KAPALUA-W MAUI PTSUNNY   73  66  78 NE21G31   30.09
HANA AIRPORT   PTSUNNY   73  66  78 NE9       30.16R HAZE
HANA*            N/A     73 N/A N/A NE8         N/A
HALEAKALA SUMM   N/A     50  36  57 SE7         N/A
MAALAEA BAY*   NOT AVBL
HALEAKALA*     NOT AVBL
KAUPO GAP*     NOT AVBL
KULA 1*          N/A     56  55  96 W5          N/A
$$

HIZ023>026-270400-
BIG ISLAND OF HAWAII COAST AND LOWER SLOPES-

CITY           SKY/WX    TMP DP  RH WIND       PRES   REMARKS
KAILUA KONA    CLOUDY    81  67  62 SW9       30.02R
HILO           PTSUNNY   77  68  73 E12       30.09R
HONOKAA*       NOT AVBL
KAWAIHAE MWT*    N/A     84 N/A N/A W5G12       N/A
KAWAIHAE*        N/A     79 N/A N/A SW7         N/A
SOUTH POINT*     N/A     73 N/A N/A NE16G24     N/A
UPOLU AIRPORT*   N/A    N/A N/A N/A NE24G37     N/A
KAMUELA*       CLOUDY    66  64  94 NE18      30.15R
HAKALAU*         N/A     54  53  97 E5          N/A
KALOKO-HONOKO*   N/A     82  68  61 SW7       30.03R
PALI 2*          N/A     70  59  68 NE21G35     N/A
KEALAKOMO*       N/A     66  52  59 NE18G30     N/A
KAUPULEHU*     NOT AVBL
KAPAPALA*        N/A     76  62  60 E5G21       N/A
LOWER KAHUKU*    N/A     66  64  94 E3G13       N/A
PUHE CS*         N/A     82  70  65 SW3G10      N/A
PUHO CS*         N/A     80  67  65 W3          N/A
PTA KEAMUKU*     N/A     64  57  77 CALM        N/A
WAIKOLOA*      NOT AVBL
$$

HIZ027>028-270400-
BIG ISLAND OF HAWAII INTERIOR AND SUMMMITS-

CITY           SKY/WX    TMP DP  RH WIND       PRES   REMARKS
BRADSHAW FIELD SUNNY     62  53  72 SE13G20   30.34R
MK VISITOR CEN NOT AVBL
MAUNA KEA*       N/A     37 -13  11 SE12        N/A  WCI  30
MAUNA LOA*       N/A    N/A N/A N/A MISG        N/A
MAUNA LOA 1*   NOT AVBL
PTA KIPUKA*      N/A     63  57  82 NW9G15      N/A
PTA RANGE 17*    N/A     63  55  77 SW8G17      N/A
PTA WEST*        N/A     70  57  64 W9G21       N/A
NENE CABIN*      N/A     55  46  71 E5G14       N/A
AHUMOA*        NOT AVBL
PTA PORTABLE*  NOT AVBL
PUU MALI*      NOT AVBL
$$

HIC003-270400-
NORTHWEST ISLANDS-

CITY           SKY/WX    TMP DP  RH WIND       PRES   REMARKS
MIDWAY ISLAND  SUNNY     73  64  73 SW12      30.03F
MIDWAY NOS*    NOT AVBL
FRENCH FRIGATE NOT AVBL
$$

PHZ110>124-180-270400-
BUOY REPORTS

STATION/POSITION TIME  TEMP    WIND        PRES    WAVE   SWELL
                       AIR SEA DIR/SP/G            HT/PER HT/DIR
                 (UTC) (F)     (DEG/KT/KT) (MB)    (FT/S) (FT/D)
BUOY 51001       NOT AVBL
BUOY 51101       0300   70 73   90/ 14/ 16 1021.5F   8/11   7/320
BUOY 51100       NOT AVBL
BUOY 51003       0300   75 78   70/ 17/ 21 1017.5F   9/11   5
BUOY 51004       0238   76 77   60/ 19/ 23 1016.1R   6/ 6   2/190
BARBERS PT BUOY  NOT AVBL
WAIMEA BAY BUOY  0300      76                N/A     8/12   5/320
KAILUA BAY BUOY  0300      76                N/A     8/ 8   3/350
LANAI BUOY       0300      77                N/A     3/13   2/230
BARBERS PT 2     0300      76                N/A     4/12   3/290
PAUWELA MAUI     0300      76                N/A     8/11
HILO             0300      78                N/A     8/12   3/350
KANEOHE BAY BUOY 0300      76                N/A     7/12   3/350
HANALEI KAUAI    0300      74                N/A     8/12   5/320
KAHULUI HARBOR   0300   73 77   30/ 18/ 20 1019.3R
HONOLULU HARBOR  0300   75 76   50/ 10/ 18 1019.4R
KILO NALU        NOT AVBL
HILO HARBOR      0300   77 77   60/  5/ 13 1018.7R
MOKUOLOE         0300   74 77   40/ 11/ 14 1020.2S
NAWILIWILI       0300   72 78   50/ 10/ 13 1020.7R
WHOTS BUOY       NOT AVBL
BUOY 51028       NOT AVBL
$$

......................KEY........................................
  SKY/WX - SKY CONDITIONS/PRESENT WEATHER
  TMP    - TEMPERATURE IN FAHRENHEIT
  DWPT   - DEWPOINT IN FAHRENHEIT
  RH     - RELATIVE HUMIDITY IN PERCENT
  WIND   - DIRECTION AND SPEED /MPH FOR ISLANDS...KTS FOR BUOYS/
  PRES   - MEAN SEA LEVEL PRESSURE IN INCHES OF HG
  VSB    - VISIBILITY IN MILES
  HX     - HEAT INDEX
  WCI    - WIND CHILL INDEX
  VRB    - VARIABLE WIND DIRECTION
  N/A    - NOT AVAILABLE


USA.gov is the U.S. government's official web portal to all federal, state and local government web resources and services.